Terminal Aerodrome Forecast
Issued by NWS

Home | Current Version | Previous Version | Text Only | Print | Product List | Glossary On
Versions: 1 2 3 4 5 6 7 8 9 10 11 12 13 14 15 16 17 18 19
000
FTUS45 KABQ 010500
TAFAEG
TAF
KAEG 010531Z 0106/0206 31005KT P6SM SCT060
     FM010800 VRB05KT P6SM VCFG SCT005
      TEMPO 0110/0114 1SM BR OVC005
     FM011900 19008KT P6SM SCT030
     FM012200 13008KT P6SM SCT050=

USA.gov is the U.S. government's official web portal to all federal, state and local government web resources and services.